This is the latest recevied weather packets stored in our database for station/object EA3ANS-1. If no packets are shown the sender has not sent any weather packets the latest 10 day(s).
| Time | Temp. | Humidity | Pressure | Rain* | Wind** | Luminosity | Snow |
|---|---|---|---|---|---|---|---|
| 1787608043 | 21.67° C | - | 1010.1 hPa | 0 mm | 0 m/s | - | - |
| 1787607445 | 22.22° C | - | 1009.9 hPa | 0 mm | 0 m/s | - | - |
| 1787606843 | 21.67° C | - | 1010 hPa | 0 mm | 0 m/s | - | - |
| 1787606246 | 22.22° C | - | 1010 hPa | 0 mm | 0 m/s | - | - |
| 1787605642 | 22.22° C | - | 1010.2 hPa | 0 mm | 0 m/s | - | - |
| 1787605045 | 22.22° C | - | 1010.2 hPa | 0 mm | 0 m/s | - | - |
| 1787604447 | 22.78° C | - | 1010.3 hPa | 0 mm | 0 m/s | - | - |
| 1787603849 | 22.78° C | - | 1010.3 hPa | 0 mm | 0 m/s | - | - |
| 1787603252 | 22.78° C | - | 1010.3 hPa | 0 mm | 0 m/s | - | - |
| 1787602652 | 23.33° C | - | 1010.2 hPa | 0 mm | 1.34 m/s, 62° | - | - |
| 1787602052 | 23.33° C | - | 1010.1 hPa | 0 mm | 0.89 m/s, 215° | - | - |
| 1787601445 | 23.33° C | - | 1010 hPa | 0 mm | 1.34 m/s, 177° | - | - |
| 1787600848 | 23.89° C | - | 1009.9 hPa | 0 mm | 0 m/s | - | - |
| 1787600250 | 23.33° C | - | 1009.8 hPa | 0 mm | 1.79 m/s, 172° | - | - |
| 1787599653 | 23.89° C | - | 1009.9 hPa | 0 mm | 0.89 m/s, 141° | - | - |
| 1787599056 | 23.89° C | - | 1009.8 hPa | 0 mm | 0.45 m/s, 218° | - | - |
| 1787598456 | 24.44° C | - | 1009.7 hPa | 0 mm | 2.24 m/s, 183° | - | - |
| 1787597859 | 25° C | - | 1009.5 hPa | 0 mm | 3.13 m/s, 219° | - | - |
| 1787597255 | 25° C | - | 1009.7 hPa | 0 mm | 2.68 m/s, 257° | - | - |
| 1787596657 | 25° C | - | 1009.5 hPa | 0 mm | 2.24 m/s, 240° | - | - |
| 1787596054 | 25° C | - | 1009.9 hPa | 0 mm | 3.13 m/s, 253° | - | - |
| 1787595456 | 25° C | - | 1009.6 hPa | 0 mm | 2.24 m/s, 248° | - | - |
| 1787594856 | 25° C | - | 1009.4 hPa | 0 mm | 2.68 m/s, 298° | - | - |
| 1787594252 | 25.56° C | - | 1009.1 hPa | 0 mm | 4.02 m/s, 280° | - | - |
| 1787593655 | 26.11° C | - | 1008.6 hPa | 0 mm | 2.68 m/s, 1° | - | - |
* Rain latest hour (hover to see other rain measurements)
** Current wind speed in m/s (hover to see current wind gust speed)